TimeEDT,TemperatureF,Dew PointF,Humidity,Sea Level PressureIn,VisibilityMPH,Wind Direction,Wind SpeedMPH,Gust SpeedMPH,PrecipitationIn,Events,Conditions,WindDirDegrees,DateUTC
12:53 AM,71.1,64.0,78,29.83,6.0,ESE,4.6,-,0.02,Rain,Rain,120,2012-07-04 04:53:00
1:53 AM,69.1,66.9,93,29.83,8.0,Calm,Calm,-,0.00,,Overcast,0,2012-07-04 05:53:00
2:53 AM,71.1,68.0,90,29.82,8.0,Calm,Calm,-,0.01,,Mostly Cloudy,0,2012-07-04 06:53:00
3:53 AM,70.0,68.0,93,29.82,6.0,Calm,Calm,-,0.00,Rain,Light Rain,0,2012-07-04 07:53:00
4:53 AM,71.1,66.0,84,29.85,8.0,WNW,4.6,-,0.02,Rain,Light Rain,290,2012-07-04 08:53:00
5:53 AM,69.1,66.0,90,29.84,10.0,Calm,Calm,-,0.03,Rain,Light Rain,0,2012-07-04 09:53:00
6:53 AM,69.1,66.9,93,29.84,9.0,Calm,Calm,-,0.01,,Mostly Cloudy,0,2012-07-04 10:53:00
7:53 AM,70.0,66.9,90,29.84,10.0,WSW,3.5,-,N/A,,Mostly Cloudy,250,2012-07-04 11:53:00
8:53 AM,72.0,66.9,84,29.84,10.0,Calm,Calm,-,N/A,,Scattered Clouds,0,2012-07-04 12:53:00
9:53 AM,75.0,66.9,76,29.83,10.0,West,6.9,-,N/A,,Clear,260,2012-07-04 13:53:00
10:53 AM,79.0,68.0,69,29.82,10.0,SW,8.1,-,N/A,,Scattered Clouds,220,2012-07-04 14:53:00
11:53 AM,80.1,66.9,64,29.81,10.0,Variable,6.9,-,N/A,,Scattered Clouds,0,2012-07-04 15:53:00
12:53 PM,82.0,66.9,60,29.80,10.0,West,8.1,-,N/A,,Scattered Clouds,280,2012-07-04 16:53:00
1:53 PM,84.9,68.0,57,29.78,10.0,Variable,3.5,-,N/A,,Scattered Clouds,0,2012-07-04 17:53:00
2:53 PM,88.0,68.0,51,29.78,10.0,WNW,8.1,-,N/A,,Partly Cloudy,290,2012-07-04 18:53:00
3:53 PM,87.1,68.0,53,29.77,10.0,WSW,5.8,-,N/A,,Scattered Clouds,240,2012-07-04 19:53:00
4:53 PM,86.0,66.9,53,29.75,10.0,West,5.8,-,N/A,,Scattered Clouds,260,2012-07-04 20:53:00
6:53 PM,84.9,69.1,59,29.73,10.0,WSW,3.5,-,N/A,,Mostly Cloudy,240,2012-07-04 22:53:00
7:53 PM,82.0,71.1,69,29.74,10.0,South,4.6,-,N/A,,Mostly Cloudy,190,2012-07-04 23:53:00
8:53 PM,80.1,70.0,71,29.74,10.0,ESE,3.5,-,N/A,,Scattered Clouds,120,2012-07-05 00:53:00
9:26 PM,78.8,69.8,74,29.77,5.0,SSE,3.5,-,0.00,Thunderstorm,Haze,150,2012-07-05 01:26:00
9:53 PM,79.0,70.0,74,29.77,10.0,Variable,3.5,-,0.00,Thunderstorm,Thunderstorm,0,2012-07-05 01:53:00
10:05 PM,77.0,69.8,78,29.78,10.0,WSW,3.5,-,N/A,,Partly Cloudy,240,2012-07-05 02:05:00
10:53 PM,75.9,70.0,82,29.75,10.0,WSW,5.8,-,N/A,,Partly Cloudy,240,2012-07-05 02:53:00
11:53 PM,75.0,70.0,84,29.74,10.0,Calm,Calm,-,N/A,,Clear,0,2012-07-05 03:53:00